Regional Weather Roundup
Issued by NWS Sterling, VA

Home | Current Version | Previous Version | Text Only | Print | Product List | Glossary Off
Versions: 1 2 3 4 5 6 7 8 9 10 11 12 13 14 15 16 17 18 19 20 21 22 23 24 25 26 27 28 29 30 31 32 33 34 35 36 37 38 39 40 41 42 43 44 45 46 47 48 49 50

000
ASUS41 KLWX 022010
RWRLWX

REGIONAL WEATHER ROUNDUP
NATIONAL WEATHER SERVICE BALTIMORE MD/WASHINGTON DC
400 PM EDT THU JUL 02 2015

Note: "FAIR" indicates few or no clouds below 12,000 feet
with no significant weather and/or obstructions to visibility.
 TC=TEMPERATURE CELSIUS

 * =Non NWS site. Station does not report precipitation (e.g. rain,
    snow, etc.), thunder, or fog.

DCZ001-MDZ009-015-VAZ040>042-051-053>054-022100-
WASHINGTON METRO

CITY           SKY/WX    TMP DP  RH WIND       PRES   REMARKS
WASHINGTON NAT CLOUDY    77  66  69 N7        29.90S
DULLES         CLOUDY    72  62  71 NW5       29.91S
ANDREWS AFB    LGT RAIN  72  66  82 NE6       29.90S
FT BELVOIR     PTSUNNY   74  65  73 NW5       29.90S
QUANTICO       CLOUDY    75  66  73 N8        29.91R
COLLEGE PARK*  CLOUDY    73  64  73 CALM      29.90S
LEESBURG*      CLOUDY    72  70  94 W3        29.93S
MANASSAS*      CLOUDY    73  64  73 N6        29.91S
GAITHERSBURG*  CLOUDY    72  64  78 CALM      29.95S

$$

MDZ006>007-011-014-022100-
BALTIMORE METRO

CITY           SKY/WX    TMP DP  RH WIND       PRES   REMARKS
BWI AIRPORT    CLOUDY    74  64  71 SE5       29.90R
MD SCIENCE CTR   N/A     75  62  64 MISG      29.90S
MARTIN STATE   CLOUDY    73  68  83 CALM      29.92S
ANNAPOLIS      CLOUDY    73  65  75 N5        29.90R
FORT MEADE*    CLOUDY    72  64  78 E3        29.93S

$$

MDZ012-015-019>023-022100-
MARYLAND EASTERN SHORE

CITY           SKY/WX    TMP DP  RH WIND       PRES   REMARKS
OCEAN CITY     CLOUDY    74  70  87 N8        29.85F FOG
SALISBURY      CLOUDY    73  68  84 NE8       29.86F
BAY BRIDGE AP*   N/A     72  64  78 N3        29.90S
CAMBRIDGE*     CLOUDY    72  64  78 N5        29.88S
EASTON*        PTSUNNY   72  70  94 N6        29.93S FOG

$$

MDZ017>025-022100-
SOUTHERN MARYLAND

CITY           SKY/WX    TMP DP  RH WIND       PRES   REMARKS
PATUXENT RIVER CLOUDY    74  66  76 N12       29.87F
ST INIGOES     PTSUNNY   76  68  76 N7        29.86F
LEONARDTOWN*   CLOUDY    72  64  78 N3        29.90S

$$

MDZ003>005-022100-
NORTH CENTRAL MARYLAND

CITY           SKY/WX    TMP DP  RH WIND       PRES   REMARKS
FREDERICK*     CLOUDY    73  68  83 CALM      29.94S FOG
HAGERSTOWN APT CLOUDY    75  61  61 CALM      29.91S
WESTMINSTER*   CLOUDY    72  64  78 CALM      29.92S

$$

MDZ501>502-022100-
WESTERN MARYLAND

CITY           SKY/WX    TMP DP  RH WIND       PRES   REMARKS
OAKLAND*       CLOUDY    64  64 100 CALM      30.00F
CUMBERLAND*    CLOUDY    77  61  57 S5        29.95S

$$

VAZ025>031-022100-
SHENANDOAH VALLEY

CITY           SKY/WX    TMP DP  RH WIND       PRES   REMARKS
WINCHESTER*    CLOUDY    73  66  78 S5        29.93S
FRONT ROYAL*   MOCLDY    72  64  78 SW3       29.92F
LURAY*         FAIR      73  64  73 CALM      29.94S
NEW MARKET*    FAIR      71  63  75 CALM      29.92F
STAUNTON*      CLOUDY    74  63  69 CALM      29.96F
WAYNESBORO*    MOCLDY    69  63  81 CALM      29.96F

$$

WVZ021-048>050-054>055-022100-
EASTERN WEST VIRGINIA PANHANDLE

CITY           SKY/WX    TMP DP  RH WIND       PRES   REMARKS
MARTINSBURG    CLOUDY    74  65  73 S5        29.92F
PETERSBURG*    CLOUDY    75  59  57 CALM        N/A

$$

VAZ036>039-050-022100-
CENTRAL FOOTHILLS

CITY           SKY/WX    TMP DP  RH WIND       PRES   REMARKS
CHARLOTTESVILL CLOUDY    75  65  70 N3        29.92S
CULPEPER*      CLOUDY    72  65  80 N3        29.92F
ORANGE*        CLOUDY    73  64  73 NW5       29.93S
GORDONSVILLE*  CLOUDY    73  64  73 N3        29.91F
WARRENTON*     CLOUDY    74  67  79 N3        29.91S

$$

VAZ055>057-022100-
NORTH AND CENTRAL PIEDMONT

CITY           SKY/WX    TMP DP  RH WIND       PRES   REMARKS
FREDERICKSBRG* CLOUDY    78  64  63 NE5       29.89S
STAFFORD*      CLOUDY    74  65  74 NW6       29.95R

$$

NCZ024-NYZ072-PAZ021-071-VAZ022-071-022100-
OTHER REGIONAL OBSERVATIONS

CITY           SKY/WX    TMP DP  RH WIND       PRES   REMARKS
NEW YORK CITY  CLOUDY    76  59  55 VRB5      29.91S
PHILADELPHIA   CLOUDY    75  62  64 E5        29.89S
PITTSBURGH     CLOUDY    77  56  48 VRB7      29.93F
ROANOKE        LGT RAIN  74  63  68 N6        29.96S
RICHMOND       CLOUDY    80  73  79 N12       29.86S
RALEIGH        PTSUNNY   85  69  58 W13       29.89F

$$

ANZ530>537-022100-
MARINE OBSERVATIONS

STATION/POSITION TIME  TEMP    WIND        PRES
                       AIR SEA DIR/SP/G
                 (UTC) (F)     (DEG/KT/KT) (MB)
THOMAS PT LIGHT  2000   71 76   20/  7/  8 1012.9
BALT KEY BRIDGE  1900   73      60/  4/  6 1012.4R
COVE POINT       1900   72      30/ 10/ 13 1012.6F
LEWISETTA        1900   76 80   40/  6/ 12 1011.2R
SOLOMONS ISLAND  1900      79                N/A
PINEY POINT      1900           40/ 10/ 11   N/A

$$




USA.gov is the U.S. government's official web portal to all federal, state and local government web resources and services.